Time,TemperatureF,DewpointF,PressureIn,WindDirection,WindDirectionDegrees,WindSpeedMPH,WindSpeedGustMPH,Humidity,HourlyPrecipIn,Conditions,Clouds,dailyrainin,SolarRadiationWatts/m^2,SoftwareType,DateUTC
2013-06-24 00:02:00,54.2,52.8,29.63,NNE,32,5.0,7.0,95,0.00,,---,0.00,0.00,VWS V14.01,2013-06-24 07:02:00,
2013-06-24 00:08:00,53.9,52.5,29.62,NE,49,3.0,7.0,95,0.00,,---,0.00,0.00,VWS V14.01,2013-06-24 07:08:00,
2013-06-24 00:13:00,53.7,52.3,29.63,NE,39,1.0,7.0,95,0.00,,---,0.00,0.00,VWS V14.01,2013-06-24 07:13:00,
2013-06-24 00:18:00,53.6,52.2,29.63,NNE,30,0.0,7.0,95,0.00,,---,0.00,0.00,VWS V14.01,2013-06-24 07:18:00,
2013-06-24 00:23:00,53.5,52.1,29.63,NE,42,3.0,7.0,95,0.00,,---,0.00,0.00,VWS V14.01,2013-06-24 07:23:00,
2013-06-24 00:28:00,53.4,52.0,29.63,NE,39,4.0,7.0,95,0.00,,---,0.00,0.00,VWS V14.01,2013-06-24 07:28:00,
2013-06-24 00:33:00,53.2,51.8,29.63,NNE,15,4.0,5.0,95,0.00,,---,0.00,0.00,VWS V14.01,2013-06-24 07:33:00,
2013-06-24 00:39:00,53.1,51.7,29.63,NNE,29,2.0,5.0,95,0.00,,---,0.00,0.00,VWS V14.01,2013-06-24 07:39:00,
2013-06-24 00:44:00,52.9,51.2,29.63,North,355,5.0,5.0,94,0.00,,---,0.00,0.00,VWS V14.01,2013-06-24 07:44:00,
2013-06-24 00:49:00,52.8,51.1,29.63,North,355,5.0,6.0,94,0.00,,---,0.00,0.00,VWS V14.01,2013-06-24 07:49:00,
2013-06-24 00:54:00,52.6,51.2,29.63,NNE,30,4.0,7.0,95,0.00,,---,0.00,0.00,VWS V14.01,2013-06-24 07:54:00,
2013-06-24 00:59:00,52.6,51.2,29.63,North,355,4.0,7.0,95,0.00,,---,0.00,0.00,VWS V14.01,2013-06-24 07:59:00,
2013-06-24 01:04:00,52.5,51.1,29.63,North,10,4.0,6.0,95,0.00,,---,0.00,0.00,VWS V14.01,2013-06-24 08:04:00,
2013-06-24 01:09:00,52.4,51.0,29.63,NNE,30,2.0,6.0,95,0.00,,---,0.00,0.00,VWS V14.01,2013-06-24 08:09:00,
2013-06-24 01:14:00,52.4,51.0,29.63,North,5,5.0,6.0,95,0.00,,---,0.00,0.00,VWS V14.01,2013-06-24 08:14:00,
2013-06-24 01:19:00,52.3,50.6,29.63,NNW,346,1.0,7.0,94,0.00,,---,0.00,0.00,VWS V14.01,2013-06-24 08:19:00,
2013-06-24 01:24:00,52.2,50.5,29.63,North,355,2.0,7.0,94,0.00,,---,0.00,0.00,VWS V14.01,2013-06-24 08:24:00,
2013-06-24 01:29:00,52.2,50.5,29.63,North,360,2.0,7.0,94,0.00,,---,0.00,0.00,VWS V14.01,2013-06-24 08:29:00,
2013-06-24 01:34:00,52.1,50.4,29.62,North,5,4.0,5.0,94,0.00,,---,0.00,0.00,VWS V14.01,2013-06-24 08:34:00,
2013-06-24 01:39:00,52.0,50.3,29.62,NNW,348,4.0,7.0,94,0.00,,---,0.00,0.00,VWS V14.01,2013-06-24 08:39:00,
2013-06-24 01:44:00,52.0,50.3,29.63,North,355,4.0,7.0,94,0.00,,---,0.00,0.00,VWS V14.01,2013-06-24 08:44:00,
2013-06-24 01:49:00,51.9,49.9,29.63,NNE,14,4.0,7.0,93,0.00,,---,0.00,0.00,VWS V14.01,2013-06-24 08:49:00,
2013-06-24 01:54:00,51.8,49.8,29.63,NNE,27,2.0,7.0,93,0.00,,---,0.00,0.00,VWS V14.01,2013-06-24 08:54:00,
2013-06-24 02:00:00,51.8,49.8,29.62,NNE,15,5.0,7.0,93,0.00,,---,0.00,0.00,VWS V14.01,2013-06-24 09:00:00,
2013-06-24 02:05:00,51.7,49.8,29.63,NNW,347,4.0,5.0,93,0.00,,---,0.00,0.00,VWS V14.01,2013-06-24 09:05:00,
2013-06-24 02:10:00,51.6,49.4,29.63,North,11,4.0,5.0,92,0.00,,---,0.00,0.00,VWS V14.01,2013-06-24 09:10:00,
2013-06-24 02:15:00,51.6,48.8,29.63,NNE,31,5.0,7.0,90,0.00,,---,0.00,0.00,VWS V14.01,2013-06-24 09:15:00,
2013-06-24 02:20:00,51.7,48.9,29.62,NE,43,3.0,7.0,90,0.00,,---,0.00,0.00,VWS V14.01,2013-06-24 09:20:00,
2013-06-24 02:25:00,51.7,48.6,29.62,NNE,15,2.0,7.0,89,0.00,,---,0.00,0.00,VWS V14.01,2013-06-24 09:25:00,
2013-06-24 02:30:00,51.7,48.6,29.62,NNE,21,2.0,7.0,89,0.00,,---,0.00,0.00,VWS V14.01,2013-06-24 09:30:00,
2013-06-24 02:35:00,51.7,48.3,29.62,North,5,2.0,4.0,88,0.00,,---,0.00,0.00,VWS V14.01,2013-06-24 09:35:00,
2013-06-24 02:40:00,51.7,47.7,29.62,NE,53,1.0,5.0,86,0.00,,---,0.00,0.00,VWS V14.01,2013-06-24 09:40:00,
2013-06-24 02:45:00,51.7,48.3,29.61,North,9,2.0,5.0,88,0.00,,---,0.00,0.00,VWS V14.01,2013-06-24 09:45:00,
2013-06-24 02:51:00,51.7,48.3,29.61,North,355,5.0,6.0,88,0.00,,---,0.00,0.00,VWS V14.01,2013-06-24 09:51:00,
2013-06-24 02:56:00,51.7,48.6,29.61,NE,35,4.0,6.0,89,0.00,,---,0.00,0.00,VWS V14.01,2013-06-24 09:56:00,
2013-06-24 03:01:00,51.6,48.5,29.61,NW,315,2.0,3.0,89,0.00,,---,0.00,0.00,VWS V14.01,2013-06-24 10:01:00,
2013-06-24 03:06:00,51.5,48.7,29.61,NW,313,3.0,4.0,90,0.00,,---,0.00,0.00,VWS V14.01,2013-06-24 10:06:00,
2013-06-24 03:12:00,51.4,48.6,29.61,North,360,0.0,4.0,90,0.00,,---,0.00,0.00,VWS V14.01,2013-06-24 10:12:00,
2013-06-24 03:17:00,51.3,48.5,29.61,NNE,12,3.0,6.0,90,0.00,,---,0.00,0.00,VWS V14.01,2013-06-24 10:17:00,
2013-06-24 03:22:00,51.2,48.7,29.61,NNW,328,2.0,6.0,91,0.00,,---,0.00,0.00,VWS V14.01,2013-06-24 10:22:00,
2013-06-24 03:27:00,51.1,48.0,29.61,NE,36,3.0,7.0,89,0.00,,---,0.00,0.00,VWS V14.01,2013-06-24 10:27:00,
2013-06-24 03:32:00,51.2,47.5,29.61,NNW,344,3.0,5.0,87,0.00,,---,0.00,0.00,VWS V14.01,2013-06-24 10:32:00,
2013-06-24 03:37:00,51.3,47.3,29.61,NE,51,3.0,7.0,86,0.00,,---,0.00,0.00,VWS V14.01,2013-06-24 10:37:00,
2013-06-24 03:42:00,51.5,46.8,29.61,NNE,15,6.0,7.0,84,0.00,,---,0.00,0.00,VWS V14.01,2013-06-24 10:42:00,
2013-06-24 03:47:00,51.7,47.0,29.61,North,5,5.0,8.0,84,0.00,,---,0.00,0.00,VWS V14.01,2013-06-24 10:47:00,
2013-06-24 03:52:00,51.9,46.9,29.61,NNE,15,6.0,9.0,83,0.00,,---,0.00,0.00,VWS V14.01,2013-06-24 10:52:00,
2013-06-24 03:57:00,52.0,47.3,29.61,NNW,342,6.0,9.0,84,0.00,,---,0.00,0.00,VWS V14.01,2013-06-24 10:57:00,
2013-06-24 04:02:00,51.9,47.8,29.61,NE,50,6.0,8.0,86,0.00,,---,0.00,0.00,VWS V14.01,2013-06-24 11:02:00,
2013-06-24 04:08:00,51.9,47.5,29.61,NNE,13,4.0,9.0,85,0.00,,---,0.00,0.00,VWS V14.01,2013-06-24 11:08:00,
2013-06-24 04:13:00,51.8,48.1,29.61,North,5,5.0,9.0,87,0.00,,---,0.00,0.00,VWS V14.01,2013-06-24 11:13:00,
2013-06-24 04:18:00,51.6,47.9,29.61,NNE,14,5.0,9.0,87,0.00,,---,0.00,0.00,VWS V14.01,2013-06-24 11:18:00,
2013-06-24 04:23:00,51.5,48.1,29.61,NNW,331,4.0,9.0,88,0.00,,---,0.00,0.00,VWS V14.01,2013-06-24 11:23:00,
2013-06-24 04:28:00,51.3,47.6,29.61,North,5,7.0,9.0,87,0.00,,---,0.00,0.00,VWS V14.01,2013-06-24 11:28:00,
2013-06-24 04:33:00,51.2,47.5,29.61,NNW,328,2.0,8.0,87,0.00,,---,0.00,0.00,VWS V14.01,2013-06-24 11:33:00,
2013-06-24 04:39:00,51.1,48.0,29.61,NNE,27,5.0,9.0,89,0.00,,---,0.00,0.00,VWS V14.01,2013-06-24 11:39:00,
2013-06-24 04:44:00,51.0,47.6,29.61,North,355,4.0,9.0,88,0.00,,---,0.00,0.00,VWS V14.01,2013-06-24 11:44:00,
2013-06-24 04:49:00,50.9,47.5,29.61,North,11,6.0,9.0,88,0.00,,---,0.00,0.00,VWS V14.01,2013-06-24 11:49:00,
2013-06-24 04:54:00,50.9,46.9,29.61,NNE,18,4.0,9.0,86,0.00,,---,0.00,0.00,VWS V14.01,2013-06-24 11:54:00,
2013-06-24 04:59:00,51.0,47.3,29.60,NNE,24,4.0,9.0,87,0.00,,---,0.00,0.00,VWS V14.01,2013-06-24 11:59:00,
2013-06-24 05:04:00,51.0,47.3,29.60,NNE,25,5.0,6.0,87,0.00,,---,0.00,0.00,VWS V14.01,2013-06-24 12:04:00,
2013-06-24 05:09:00,51.0,47.3,29.60,NE,44,6.0,8.0,87,0.00,,---,0.00,0.00,VWS V14.01,2013-06-24 12:09:00,
2013-06-24 05:14:00,51.0,47.0,29.60,North,9,3.0,8.0,86,0.00,,---,0.00,0.00,VWS V14.01,2013-06-24 12:14:00,
2013-06-24 05:19:00,51.0,46.7,29.60,NNE,15,5.0,9.0,85,0.00,,---,0.00,0.00,VWS V14.01,2013-06-24 12:19:00,
2013-06-24 05:25:00,51.0,47.0,29.60,North,350,5.0,10.0,86,0.00,,---,0.00,0.00,VWS V14.01,2013-06-24 12:25:00,
2013-06-24 05:30:00,50.9,47.5,29.60,NW,317,3.0,10.0,88,0.00,,---,0.00,0.00,VWS V14.01,2013-06-24 12:30:00,
2013-06-24 05:35:00,50.8,47.1,29.60,NNW,344,4.0,8.0,87,0.00,,---,0.00,5.00,VWS V14.01,2013-06-24 12:35:00,
2013-06-24 05:40:00,50.7,46.7,29.60,NE,38,6.0,10.0,86,0.00,,---,0.00,7.00,VWS V14.01,2013-06-24 12:40:00,
2013-06-24 05:45:00,50.8,46.5,29.60,NE,43,3.0,10.0,85,0.00,,---,0.00,9.00,VWS V14.01,2013-06-24 12:45:00,
2013-06-24 05:50:00,50.9,46.9,29.61,NNE,29,3.0,10.0,86,0.00,,---,0.00,12.00,VWS V14.01,2013-06-24 12:50:00,
2013-06-24 05:55:00,50.8,46.8,29.61,NE,45,5.0,10.0,86,0.00,,---,0.00,12.00,VWS V14.01,2013-06-24 12:55:00,
2013-06-24 06:00:00,50.8,47.4,29.62,ENE,57,4.0,10.0,88,0.00,,---,0.00,12.00,VWS V14.01,2013-06-24 13:00:00,
2013-06-24 06:05:00,50.7,47.0,29.61,NNE,20,5.0,5.0,87,0.00,,---,0.00,23.00,VWS V14.01,2013-06-24 13:05:00,
2013-06-24 06:10:00,50.6,46.9,29.61,NE,42,2.0,6.0,87,0.00,,---,0.00,35.00,VWS V14.01,2013-06-24 13:10:00,
2013-06-24 06:15:00,50.6,46.6,29.61,NE,55,3.0,6.0,86,0.00,,---,0.00,33.00,VWS V14.01,2013-06-24 13:15:00,
2013-06-24 06:20:00,50.5,46.5,29.61,NE,55,2.0,7.0,86,0.00,,---,0.00,28.00,VWS V14.01,2013-06-24 13:20:00,
2013-06-24 06:25:00,50.5,46.8,29.62,ENE,62,4.0,7.0,87,0.00,,---,0.00,23.00,VWS V14.01,2013-06-24 13:25:00,
2013-06-24 06:30:00,50.5,47.4,29.62,ENE,57,2.0,2.0,89,0.00,,---,0.00,23.00,VWS V14.01,2013-06-24 13:30:00,
2013-06-24 06:36:00,50.5,47.7,29.61,ENE,67,1.0,3.0,90,0.00,,---,0.00,33.00,VWS V14.01,2013-06-24 13:36:00,
2013-06-24 06:41:00,50.6,48.1,29.62,East,85,0.0,3.0,91,0.00,,---,0.00,30.00,VWS V14.01,2013-06-24 13:41:00,
2013-06-24 06:46:00,50.7,48.2,29.62,ENE,76,0.0,3.0,91,0.00,,---,0.00,21.00,VWS V14.01,2013-06-24 13:46:00,
2013-06-24 06:51:00,50.7,48.5,29.62,NE,36,0.0,3.0,92,0.00,,---,0.00,16.00,VWS V14.01,2013-06-24 13:51:00,
2013-06-24 06:56:00,50.8,48.6,29.62,NE,36,0.0,3.0,92,0.00,,---,0.00,16.00,VWS V14.01,2013-06-24 13:56:00,
2013-06-24 07:01:00,50.8,48.3,29.63,NE,36,1.0,1.0,91,0.00,,---,0.00,14.00,VWS V14.01,2013-06-24 14:01:00,
2013-06-24 07:06:00,50.6,47.8,29.63,NNE,19,2.0,6.0,90,0.01,,---,0.01,21.00,VWS V14.01,2013-06-24 14:06:00,
2013-06-24 07:11:00,50.3,47.5,29.63,NE,34,2.0,6.0,90,0.01,,---,0.01,32.00,VWS V14.01,2013-06-24 14:11:00,
2013-06-24 07:16:00,50.0,47.2,29.63,NNE,12,2.0,6.0,90,0.01,,---,0.01,47.00,VWS V14.01,2013-06-24 14:16:00,
2013-06-24 07:21:00,49.8,46.7,29.63,North,355,3.0,6.0,89,0.01,,---,0.01,60.00,VWS V14.01,2013-06-24 14:21:00,
2013-06-24 07:26:00,49.7,46.9,29.63,North,360,0.0,6.0,90,0.01,,---,0.01,42.00,VWS V14.01,2013-06-24 14:26:00,
2013-06-24 07:31:00,49.6,47.1,29.63,North,5,3.0,4.0,91,0.01,,---,0.01,47.00,VWS V14.01,2013-06-24 14:31:00,
2013-06-24 07:36:00,49.5,46.4,29.63,NNE,29,2.0,6.0,89,0.01,,---,0.01,40.00,VWS V14.01,2013-06-24 14:36:00,
2013-06-24 07:41:00,49.4,46.6,29.63,North,355,0.0,6.0,90,0.01,,---,0.01,40.00,VWS V14.01,2013-06-24 14:41:00,
2013-06-24 07:47:00,49.4,47.2,29.63,North,11,0.0,6.0,92,0.01,,---,0.01,33.00,VWS V14.01,2013-06-24 14:47:00,
2013-06-24 07:52:00,49.3,46.8,29.63,North,5,4.0,6.0,91,0.01,,---,0.01,26.00,VWS V14.01,2013-06-24 14:52:00,
2013-06-24 07:57:00,49.2,46.7,29.63,North,351,2.0,6.0,91,0.01,,---,0.01,25.00,VWS V14.01,2013-06-24 14:57:00,
2013-06-24 08:02:00,49.1,46.6,29.64,NW,317,1.0,2.0,91,0.02,,---,0.02,28.00,VWS V14.01,2013-06-24 15:02:00,
2013-06-24 08:07:00,49.0,46.8,29.64,WNW,292,6.0,6.0,92,0.02,,---,0.02,35.00,VWS V14.01,2013-06-24 15:07:00,
2013-06-24 08:12:00,49.0,46.8,29.64,NW,313,4.0,6.0,92,0.02,,---,0.02,42.00,VWS V14.01,2013-06-24 15:12:00,
2013-06-24 08:17:00,49.0,46.8,29.64,NNE,19,3.0,6.0,92,0.02,,---,0.02,49.00,VWS V14.01,2013-06-24 15:17:00,
2013-06-24 08:22:00,49.0,47.1,29.64,NW,317,1.0,6.0,93,0.02,,---,0.02,67.00,VWS V14.01,2013-06-24 15:22:00,
2013-06-24 08:27:00,49.1,47.2,29.64,NE,37,1.0,6.0,93,0.02,,---,0.02,79.00,VWS V14.01,2013-06-24 15:27:00,
2013-06-24 08:32:00,49.2,47.5,29.64,ENE,78,2.0,2.0,94,0.01,,---,0.02,86.00,VWS V14.01,2013-06-24 15:32:00,
2013-06-24 08:37:00,49.3,47.9,29.65,SE,124,0.0,2.0,95,0.01,,---,0.02,81.00,VWS V14.01,2013-06-24 15:37:00,
2013-06-24 08:43:00,49.4,48.0,29.65,ESE,121,0.0,2.0,95,0.01,,---,0.02,95.00,VWS V14.01,2013-06-24 15:43:00,
2013-06-24 08:48:00,49.6,48.2,29.65,ESE,121,0.0,2.0,95,0.01,,---,0.02,100.00,VWS V14.01,2013-06-24 15:48:00,
2013-06-24 08:53:00,49.7,48.6,29.65,ESE,121,0.0,2.0,96,0.02,,---,0.03,91.00,VWS V14.01,2013-06-24 15:53:00,
2013-06-24 08:58:00,49.9,48.8,29.65,SE,128,0.0,2.0,96,0.02,,---,0.03,58.00,VWS V14.01,2013-06-24 15:58:00,
2013-06-24 09:03:00,49.9,48.5,29.65,SSW,211,0.0,3.0,95,0.01,,---,0.03,35.00,VWS V14.01,2013-06-24 16:03:00,
2013-06-24 09:08:00,49.7,48.0,29.65,SSW,208,0.0,3.0,94,0.01,,---,0.03,53.00,VWS V14.01,2013-06-24 16:08:00,
2013-06-24 09:13:00,49.6,48.0,29.66,SSW,208,0.0,3.0,94,0.01,,---,0.03,84.00,VWS V14.01,2013-06-24 16:13:00,
2013-06-24 09:18:00,49.5,47.8,29.66,South,174,0.0,3.0,94,0.01,,---,0.03,104.00,VWS V14.01,2013-06-24 16:18:00,
2013-06-24 09:23:00,49.5,48.1,29.66,SSW,200,0.0,3.0,95,0.01,,---,0.03,104.00,VWS V14.01,2013-06-24 16:23:00,
2013-06-24 09:28:00,49.2,47.3,29.66,SW,215,0.0,3.0,93,0.01,,---,0.03,111.00,VWS V14.01,2013-06-24 16:28:00,
2013-06-24 09:34:00,48.8,47.2,29.66,WSW,249,0.0,3.0,94,0.01,,---,0.03,93.00,VWS V14.01,2013-06-24 16:34:00,
2013-06-24 09:39:00,48.4,46.8,29.66,SW,234,0.0,3.0,94,0.02,,---,0.04,116.00,VWS V14.01,2013-06-24 16:39:00,
2013-06-24 09:44:00,48.3,46.9,29.66,SW,234,0.0,3.0,95,0.02,,---,0.04,118.00,VWS V14.01,2013-06-24 16:44:00,
2013-06-24 09:49:00,48.3,46.9,29.66,SW,226,0.0,3.0,95,0.02,,---,0.04,127.00,VWS V14.01,2013-06-24 16:49:00,
2013-06-24 09:54:00,48.1,46.7,29.66,SW,228,0.0,3.0,95,0.02,,---,0.04,155.00,VWS V14.01,2013-06-24 16:54:00,
2013-06-24 09:59:00,48.4,47.3,29.66,SW,227,0.0,3.0,96,0.03,,---,0.05,135.00,VWS V14.01,2013-06-24 16:59:00,
2013-06-24 10:04:00,48.4,47.3,29.66,SW,227,0.0,0.0,96,0.02,,---,0.05,130.00,VWS V14.01,2013-06-24 17:04:00,
2013-06-24 10:09:00,48.5,47.4,29.66,SSW,198,0.0,2.0,96,0.02,,---,0.05,121.00,VWS V14.01,2013-06-24 17:09:00,
2013-06-24 10:14:00,48.3,47.2,29.66,WSW,243,0.0,2.0,96,0.02,,---,0.05,128.00,VWS V14.01,2013-06-24 17:14:00,
2013-06-24 10:19:00,48.3,47.2,29.67,WSW,238,2.0,2.0,96,0.03,,---,0.06,169.00,VWS V14.01,2013-06-24 17:19:00,
2013-06-24 10:24:00,48.2,47.1,29.67,SW,232,0.0,2.0,96,0.03,,---,0.06,213.00,VWS V14.01,2013-06-24 17:24:00,
2013-06-24 10:29:00,48.2,47.1,29.66,SW,223,0.0,3.0,96,0.03,,---,0.06,223.00,VWS V14.01,2013-06-24 17:29:00,
2013-06-24 10:34:00,48.3,47.2,29.66,South,178,0.0,2.0,96,0.03,,---,0.06,200.00,VWS V14.01,2013-06-24 17:34:00,
2013-06-24 10:39:00,48.5,47.4,29.67,SSW,194,0.0,3.0,96,0.03,,---,0.06,244.00,VWS V14.01,2013-06-24 17:39:00,
2013-06-24 10:44:00,48.5,47.4,29.67,SW,221,0.0,3.0,96,0.03,,---,0.06,241.00,VWS V14.01,2013-06-24 17:44:00,
2013-06-24 10:49:00,48.8,48.0,29.67,South,176,0.0,3.0,97,0.03,,---,0.06,179.00,VWS V14.01,2013-06-24 17:49:00,
2013-06-24 10:55:00,48.8,47.7,29.67,WSW,239,1.0,3.0,96,0.03,,---,0.06,134.00,VWS V14.01,2013-06-24 17:55:00,
2013-06-24 11:00:00,48.7,47.6,29.67,SSW,207,0.0,3.0,96,0.04,,---,0.07,113.00,VWS V14.01,2013-06-24 18:00:00,
2013-06-24 11:05:00,49.0,48.2,29.67,South,175,0.0,2.0,97,0.02,,---,0.07,90.00,VWS V14.01,2013-06-24 18:05:00,
2013-06-24 11:10:00,49.0,48.2,29.67,SE,146,0.0,3.0,97,0.02,,---,0.07,90.00,VWS V14.01,2013-06-24 18:10:00,
2013-06-24 11:15:00,48.9,47.8,29.67,SSW,213,2.0,4.0,96,0.02,,---,0.07,139.00,VWS V14.01,2013-06-24 18:15:00,
2013-06-24 11:20:00,48.9,47.8,29.67,SW,217,2.0,4.0,96,0.03,,---,0.08,144.00,VWS V14.01,2013-06-24 18:20:00,
2013-06-24 11:25:00,49.0,47.9,29.66,SSW,207,0.0,4.0,96,0.03,,---,0.08,128.00,VWS V14.01,2013-06-24 18:25:00,
2013-06-24 11:30:00,48.9,47.8,29.67,SW,226,2.0,4.0,96,0.03,,---,0.08,172.00,VWS V14.01,2013-06-24 18:30:00,
2013-06-24 11:35:00,48.8,47.7,29.67,WSW,238,3.0,3.0,96,0.02,,---,0.08,200.00,VWS V14.01,2013-06-24 18:35:00,
2013-06-24 11:40:00,48.8,48.0,29.67,SW,234,0.0,3.0,97,0.02,,---,0.08,153.00,VWS V14.01,2013-06-24 18:40:00,
2013-06-24 11:45:00,49.2,48.4,29.67,SW,223,0.0,4.0,97,0.02,,---,0.08,272.00,VWS V14.01,2013-06-24 18:45:00,
2013-06-24 11:50:00,49.7,48.9,29.66,SSE,168,2.0,5.0,97,0.02,,---,0.08,380.00,VWS V14.01,2013-06-24 18:50:00,
2013-06-24 11:55:00,50.2,49.4,29.67,SSW,212,0.0,5.0,97,0.02,,---,0.08,302.00,VWS V14.01,2013-06-24 18:55:00,
2013-06-24 12:00:00,50.1,49.3,29.67,SSE,155,0.0,0.0,97,0.01,,---,0.08,179.00,VWS V14.01,2013-06-24 19:00:00,
2013-06-24 12:05:00,50.2,49.4,29.66,SSE,157,1.0,4.0,97,0.01,,---,0.08,200.00,VWS V14.01,2013-06-24 19:05:00,
2013-06-24 12:11:00,50.2,49.4,29.66,SW,232,0.0,4.0,97,0.01,,---,0.08,350.00,VWS V14.01,2013-06-24 19:11:00,
2013-06-24 12:16:00,50.6,49.8,29.66,SW,229,0.0,4.0,97,0.01,,---,0.08,466.00,VWS V14.01,2013-06-24 19:16:00,
2013-06-24 12:21:00,50.9,50.1,29.66,West,262,3.0,4.0,97,0.01,,---,0.08,705.00,VWS V14.01,2013-06-24 19:21:00,
2013-06-24 12:26:00,51.8,51.3,29.66,WSW,237,3.0,4.0,98,0.01,,---,0.08,728.00,VWS V14.01,2013-06-24 19:26:00,
2013-06-24 12:31:00,52.3,51.8,29.66,SW,231,1.0,3.0,98,0.01,,---,0.09,394.00,VWS V14.01,2013-06-24 19:31:00,
2013-06-24 12:36:00,52.6,51.8,29.66,SW,219,2.0,3.0,97,0.01,,---,0.09,381.00,VWS V14.01,2013-06-24 19:36:00,
2013-06-24 12:41:00,52.6,50.9,29.66,SW,225,2.0,4.0,94,0.01,,---,0.09,213.00,VWS V14.01,2013-06-24 19:41:00,
2013-06-24 12:46:00,52.7,50.7,29.65,SW,235,1.0,4.0,93,0.01,,---,0.09,186.00,VWS V14.01,2013-06-24 19:46:00,
2013-06-24 12:51:00,52.8,51.1,29.66,SW,217,2.0,4.0,94,0.01,,---,0.09,127.00,VWS V14.01,2013-06-24 19:51:00,
2013-06-24 12:56:00,52.8,50.8,29.66,WSW,238,2.0,4.0,93,0.01,,---,0.09,169.00,VWS V14.01,2013-06-24 19:56:00,
2013-06-24 13:02:00,52.6,50.3,29.66,WSW,240,0.0,2.0,92,0.01,,---,0.09,146.00,VWS V14.01,2013-06-24 20:02:00,
2013-06-24 13:07:00,52.6,50.6,29.66,South,185,1.0,5.0,93,0.01,,---,0.09,148.00,VWS V14.01,2013-06-24 20:07:00,
2013-06-24 13:12:00,52.5,50.2,29.66,SSW,209,0.0,5.0,92,0.01,,---,0.09,151.00,VWS V14.01,2013-06-24 20:12:00,
2013-06-24 13:17:00,52.3,50.6,29.66,South,173,1.0,5.0,94,0.01,,---,0.09,148.00,VWS V14.01,2013-06-24 20:17:00,
2013-06-24 13:22:00,52.1,50.1,29.66,SSW,193,3.0,5.0,93,0.01,,---,0.09,146.00,VWS V14.01,2013-06-24 20:22:00,
2013-06-24 13:27:00,52.0,50.6,29.66,SSW,208,2.0,5.0,95,0.01,,---,0.09,149.00,VWS V14.01,2013-06-24 20:27:00,
2013-06-24 13:32:00,51.8,50.1,29.66,SW,225,1.0,4.0,94,0.00,,---,0.09,176.00,VWS V14.01,2013-06-24 20:32:00,
2013-06-24 13:37:00,51.5,50.1,29.67,WSW,238,0.0,4.0,95,0.01,,---,0.10,214.00,VWS V14.01,2013-06-24 20:37:00,
2013-06-24 13:42:00,51.7,50.6,29.67,South,179,1.0,4.0,96,0.01,,---,0.10,176.00,VWS V14.01,2013-06-24 20:42:00,
2013-06-24 13:47:00,51.8,50.7,29.67,SSW,211,2.0,4.0,96,0.01,,---,0.10,418.00,VWS V14.01,2013-06-24 20:47:00,
2013-06-24 13:52:00,52.0,50.9,29.67,SW,227,1.0,4.0,96,0.02,,---,0.11,367.00,VWS V14.01,2013-06-24 20:52:00,
2013-06-24 13:57:00,52.1,51.0,29.67,WSW,239,0.0,4.0,96,0.02,,---,0.11,316.00,VWS V14.01,2013-06-24 20:57:00,
2013-06-24 14:02:00,52.2,51.1,29.67,SSE,155,3.0,4.0,96,0.02,,---,0.11,297.00,VWS V14.01,2013-06-24 21:02:00,
2013-06-24 14:07:00,52.3,51.2,29.67,WSW,246,1.0,4.0,96,0.02,,---,0.11,316.00,VWS V14.01,2013-06-24 21:07:00,
2013-06-24 14:12:00,52.4,51.6,29.67,South,180,2.0,5.0,97,0.02,,---,0.11,278.00,VWS V14.01,2013-06-24 21:12:00,
2013-06-24 14:17:00,52.6,51.8,29.67,SE,142,2.0,5.0,97,0.02,,---,0.11,378.00,VWS V14.01,2013-06-24 21:17:00,
2013-06-24 14:23:00,52.9,52.1,29.67,SSW,209,0.0,5.0,97,0.02,,---,0.11,295.00,VWS V14.01,2013-06-24 21:23:00,
2013-06-24 14:28:00,53.3,52.5,29.67,South,175,2.0,5.0,97,0.02,,---,0.11,139.00,VWS V14.01,2013-06-24 21:28:00,
2013-06-24 14:32:00,53.4,52.3,29.67,SSE,167,1.0,1.0,96,0.02,,---,0.11,327.00,VWS V14.01,2013-06-24 21:32:00,
2013-06-24 14:37:00,53.3,51.6,29.67,SSW,208,2.0,3.0,94,0.02,,---,0.11,248.00,VWS V14.01,2013-06-24 21:37:00,
2013-06-24 14:42:00,53.3,51.9,29.67,South,186,0.0,3.0,95,0.02,,---,0.11,202.00,VWS V14.01,2013-06-24 21:42:00,
2013-06-24 14:47:00,53.4,52.3,29.67,South,186,0.0,3.0,96,0.02,,---,0.11,209.00,VWS V14.01,2013-06-24 21:47:00,
2013-06-24 14:52:00,53.5,52.1,29.67,SW,234,0.0,3.0,95,0.02,,---,0.11,237.00,VWS V14.01,2013-06-24 21:52:00,
2013-06-24 14:58:00,53.6,51.9,29.67,SSW,207,0.0,3.0,94,0.02,,---,0.11,244.00,VWS V14.01,2013-06-24 21:58:00,
2013-06-24 15:03:00,53.6,52.2,29.67,SW,217,1.0,2.0,95,0.00,,---,0.11,225.00,VWS V14.01,2013-06-24 22:03:00,
2013-06-24 15:08:00,53.7,52.0,29.67,SW,234,0.0,2.0,94,0.00,,---,0.11,251.00,VWS V14.01,2013-06-24 22:08:00,
2013-06-24 15:13:00,53.8,51.8,29.67,SW,218,2.0,3.0,93,0.00,,---,0.11,357.00,VWS V14.01,2013-06-24 22:13:00,
2013-06-24 15:18:00,54.1,52.7,29.67,South,183,0.0,4.0,95,0.00,,---,0.11,392.00,VWS V14.01,2013-06-24 22:18:00,
2013-06-24 15:23:00,54.6,52.9,29.67,SSE,162,0.0,4.0,94,0.00,,---,0.11,301.00,VWS V14.01,2013-06-24 22:23:00,
2013-06-24 15:28:00,55.1,53.7,29.67,South,182,0.0,4.0,95,0.00,,---,0.11,522.00,VWS V14.01,2013-06-24 22:28:00,
2013-06-24 15:34:00,55.6,52.7,29.67,South,182,0.0,0.0,90,0.00,,---,0.11,322.00,VWS V14.01,2013-06-24 22:34:00,
2013-06-24 15:39:00,56.0,53.1,29.67,SW,226,2.0,2.0,90,0.00,,---,0.11,512.00,VWS V14.01,2013-06-24 22:39:00,
2013-06-24 15:44:00,56.3,52.8,29.67,SW,215,0.0,2.0,88,0.00,,---,0.11,418.00,VWS V14.01,2013-06-24 22:44:00,
2013-06-24 15:49:00,56.6,53.4,29.67,SSW,194,0.0,2.0,89,0.00,,---,0.11,346.00,VWS V14.01,2013-06-24 22:49:00,
2013-06-24 15:54:00,56.6,52.5,29.67,WSW,249,2.0,3.0,86,0.00,,---,0.11,856.00,VWS V14.01,2013-06-24 22:54:00,
2013-06-24 15:59:00,56.6,52.5,29.67,WSW,248,0.0,3.0,86,0.00,,---,0.11,221.00,VWS V14.01,2013-06-24 22:59:00,
2013-06-24 16:04:00,56.7,52.6,29.66,West,273,0.0,2.0,86,0.00,,---,0.11,339.00,VWS V14.01,2013-06-24 23:04:00,
2013-06-24 16:09:00,56.8,53.0,29.66,West,273,0.0,2.0,87,0.00,,---,0.11,188.00,VWS V14.01,2013-06-24 23:09:00,
2013-06-24 16:14:00,57.0,53.5,29.66,South,190,1.0,2.0,88,0.00,,---,0.11,142.00,VWS V14.01,2013-06-24 23:14:00,
2013-06-24 16:19:00,57.1,53.3,29.66,SSE,167,0.0,3.0,87,0.00,,---,0.11,111.00,VWS V14.01,2013-06-24 23:19:00,
2013-06-24 16:24:00,57.1,53.0,29.66,South,169,0.0,3.0,86,0.00,,---,0.11,107.00,VWS V14.01,2013-06-24 23:24:00,
2013-06-24 16:29:00,57.1,53.0,29.67,South,169,0.0,3.0,86,0.01,,---,0.12,120.00,VWS V14.01,2013-06-24 23:29:00,
2013-06-24 16:34:00,57.1,53.0,29.66,SW,229,0.0,3.0,86,0.01,,---,0.12,97.00,VWS V14.01,2013-06-24 23:34:00,
2013-06-24 16:39:00,56.9,52.4,29.66,SW,225,0.0,5.0,85,0.01,,---,0.12,146.00,VWS V14.01,2013-06-24 23:39:00,
2013-06-24 16:44:00,56.9,52.8,29.66,South,173,0.0,5.0,86,0.01,,---,0.12,100.00,VWS V14.01,2013-06-24 23:44:00,
2013-06-24 16:49:00,56.9,52.8,29.66,SSE,163,0.0,5.0,86,0.01,,---,0.12,127.00,VWS V14.01,2013-06-24 23:49:00,
2013-06-24 16:54:00,57.0,53.2,29.67,South,179,1.0,5.0,87,0.01,,---,0.12,88.00,VWS V14.01,2013-06-24 23:54:00,
2013-06-24 16:59:00,56.9,52.4,29.67,South,179,0.0,5.0,85,0.01,,---,0.12,216.00,VWS V14.01,2013-06-24 23:59:00,
2013-06-24 17:04:00,56.8,52.0,29.66,SSW,211,0.0,1.0,84,0.01,,---,0.12,179.00,VWS V14.01,2013-06-25 00:04:00,
2013-06-24 17:09:00,56.9,52.8,29.67,SSW,211,0.0,1.0,86,0.01,,---,0.12,186.00,VWS V14.01,2013-06-25 00:09:00,
2013-06-24 17:14:00,57.0,53.2,29.66,SSW,211,0.0,1.0,87,0.01,,---,0.12,179.00,VWS V14.01,2013-06-25 00:14:00,
2013-06-24 17:20:00,57.2,53.1,29.66,SSW,211,0.0,1.0,86,0.01,,---,0.12,125.00,VWS V14.01,2013-06-25 00:20:00,
2013-06-24 17:25:00,57.3,53.5,29.67,SW,224,0.0,1.0,87,0.01,,---,0.12,127.00,VWS V14.01,2013-06-25 00:25:00,
2013-06-24 17:30:00,57.4,52.6,29.67,SW,224,0.0,1.0,84,0.01,,---,0.12,86.00,VWS V14.01,2013-06-25 00:30:00,
2013-06-24 17:35:00,57.5,53.3,29.67,ESE,112,0.0,2.0,86,0.00,,---,0.12,62.00,VWS V14.01,2013-06-25 00:35:00,
2013-06-24 17:40:00,57.4,52.0,29.67,ESE,112,0.0,2.0,82,0.00,,---,0.12,142.00,VWS V14.01,2013-06-25 00:40:00,
2013-06-24 17:45:00,57.4,52.6,29.67,ESE,112,0.0,2.0,84,0.00,,---,0.12,121.00,VWS V14.01,2013-06-25 00:45:00,
2013-06-24 17:50:00,57.5,53.0,29.67,ESE,112,0.0,2.0,85,0.00,,---,0.12,151.00,VWS V14.01,2013-06-25 00:50:00,
2013-06-24 17:55:00,57.6,53.5,29.67,ESE,112,0.0,2.0,86,0.00,,---,0.12,148.00,VWS V14.01,2013-06-25 00:55:00,
2013-06-24 18:01:00,57.7,53.2,29.67,ESE,104,0.0,0.0,85,0.00,,---,0.12,135.00,VWS V14.01,2013-06-25 01:01:00,
2013-06-24 18:06:00,57.8,53.0,29.67,ESE,104,1.0,2.0,84,0.00,,---,0.12,127.00,VWS V14.01,2013-06-25 01:06:00,
2013-06-24 18:11:00,57.8,52.3,29.67,ENE,61,2.0,3.0,82,0.00,,---,0.12,102.00,VWS V14.01,2013-06-25 01:11:00,
2013-06-24 18:16:00,57.8,52.0,29.67,ENE,58,3.0,5.0,81,0.00,,---,0.12,137.00,VWS V14.01,2013-06-25 01:16:00,
2013-06-24 18:21:00,58.0,52.9,29.67,NNE,12,5.0,5.0,83,0.00,,---,0.12,137.00,VWS V14.01,2013-06-25 01:21:00,
2013-06-24 18:26:00,58.0,51.9,29.68,ENE,59,4.0,7.0,80,0.00,,---,0.12,65.00,VWS V14.01,2013-06-25 01:26:00,
2013-06-24 18:31:00,57.8,51.7,29.68,ENE,73,3.0,3.0,80,0.00,,---,0.12,67.00,VWS V14.01,2013-06-25 01:31:00,
2013-06-24 18:36:00,57.7,51.6,29.68,NE,50,4.0,7.0,80,0.00,,---,0.12,72.00,VWS V14.01,2013-06-25 01:36:00,
2013-06-24 18:41:00,57.5,51.4,29.68,NE,47,3.0,9.0,80,0.00,,---,0.12,107.00,VWS V14.01,2013-06-25 01:41:00,
2013-06-24 18:46:00,57.5,51.4,29.67,NNE,19,3.0,9.0,80,0.00,,---,0.12,148.00,VWS V14.01,2013-06-25 01:46:00,
2013-06-24 18:51:00,57.6,51.5,29.68,NE,47,4.0,9.0,80,0.00,,---,0.12,95.00,VWS V14.01,2013-06-25 01:51:00,
2013-06-24 18:56:00,57.7,51.6,29.68,ENE,64,2.0,9.0,80,0.00,,---,0.12,97.00,VWS V14.01,2013-06-25 01:56:00,
2013-06-24 19:01:00,57.8,52.0,29.68,NNE,17,4.0,4.0,81,0.00,,---,0.12,63.00,VWS V14.01,2013-06-25 02:01:00,
2013-06-24 19:06:00,57.7,51.2,29.68,NE,56,4.0,7.0,79,0.00,,---,0.12,74.00,VWS V14.01,2013-06-25 02:06:00,
2013-06-24 19:11:00,57.7,51.6,29.68,ENE,63,7.0,7.0,80,0.00,,---,0.12,72.00,VWS V14.01,2013-06-25 02:11:00,
2013-06-24 19:16:00,57.7,51.6,29.68,NNE,32,7.0,7.0,80,0.00,,---,0.12,58.00,VWS V14.01,2013-06-25 02:16:00,
2013-06-24 19:21:00,57.6,51.1,29.69,NE,36,4.0,9.0,79,0.00,,---,0.12,72.00,VWS V14.01,2013-06-25 02:21:00,
2013-06-24 19:26:00,57.5,51.0,29.69,NE,53,7.0,9.0,79,0.00,,---,0.12,90.00,VWS V14.01,2013-06-25 02:26:00,
2013-06-24 19:31:00,57.3,50.5,29.69,NE,55,7.0,8.0,78,0.00,,---,0.12,79.00,VWS V14.01,2013-06-25 02:31:00,
2013-06-24 19:36:00,57.1,50.3,29.69,NE,42,4.0,8.0,78,0.00,,---,0.12,77.00,VWS V14.01,2013-06-25 02:36:00,
2013-06-24 19:41:00,56.9,50.8,29.69,NNE,30,4.0,9.0,80,0.00,,---,0.12,63.00,VWS V14.01,2013-06-25 02:41:00,
2013-06-24 19:47:00,56.8,51.0,29.69,NNE,17,5.0,11.0,81,0.00,,---,0.12,49.00,VWS V14.01,2013-06-25 02:47:00,
2013-06-24 19:52:00,56.6,50.5,29.69,NNE,13,6.0,11.0,80,0.00,,---,0.12,46.00,VWS V14.01,2013-06-25 02:52:00,
2013-06-24 19:57:00,56.4,50.3,29.70,ENE,68,5.0,11.0,80,0.00,,---,0.12,46.00,VWS V14.01,2013-06-25 02:57:00,
2013-06-24 20:02:00,56.2,50.8,29.69,NNE,30,3.0,5.0,82,0.00,,---,0.12,40.00,VWS V14.01,2013-06-25 03:02:00,
2013-06-24 20:07:00,56.0,50.6,29.69,NE,40,2.0,8.0,82,0.00,,---,0.12,30.00,VWS V14.01,2013-06-25 03:07:00,
2013-06-24 20:12:00,55.8,50.7,29.70,ENE,62,5.0,9.0,83,0.00,,---,0.12,26.00,VWS V14.01,2013-06-25 03:12:00,
2013-06-24 20:17:00,55.7,50.6,29.70,NE,38,7.0,9.0,83,0.00,,---,0.12,23.00,VWS V14.01,2013-06-25 03:17:00,
2013-06-24 20:22:00,55.5,50.4,29.70,ENE,57,4.0,9.0,83,0.00,,---,0.12,18.00,VWS V14.01,2013-06-25 03:22:00,
2013-06-24 20:27:00,55.3,50.6,29.70,ENE,65,5.0,9.0,84,0.00,,---,0.12,12.00,VWS V14.01,2013-06-25 03:27:00,
2013-06-24 20:32:00,55.2,50.8,29.70,NNE,22,3.0,6.0,85,0.00,,---,0.12,5.00,VWS V14.01,2013-06-25 03:32:00,
2013-06-24 20:37:00,55.1,50.7,29.70,NE,49,3.0,9.0,85,0.00,,---,0.12,5.00,VWS V14.01,2013-06-25 03:37:00,
2013-06-24 20:42:00,55.1,51.0,29.70,NE,49,4.0,9.0,86,0.00,,---,0.12,5.00,VWS V14.01,2013-06-25 03:42:00,
2013-06-24 20:48:00,55.0,50.9,29.70,NE,44,4.0,9.0,86,0.00,,---,0.12,0.00,VWS V14.01,2013-06-25 03:48:00,
2013-06-24 20:53:00,54.8,51.0,29.70,NNE,22,5.0,9.0,87,0.00,,---,0.12,0.00,VWS V14.01,2013-06-25 03:53:00,
2013-06-24 20:58:00,54.6,51.4,29.70,NE,50,3.0,9.0,89,0.00,,---,0.12,0.00,VWS V14.01,2013-06-25 03:58:00,
2013-06-24 21:01:00,54.5,51.0,29.70,North,5,6.0,6.0,88,0.00,,---,0.12,0.00,VWS V14.01,2013-06-25 04:01:00,
2013-06-24 21:06:00,54.2,50.7,29.71,ENE,69,7.0,10.0,88,0.00,,---,0.12,0.00,VWS V14.01,2013-06-25 04:06:00,
2013-06-24 21:11:00,54.1,50.6,29.71,North,5,6.0,10.0,88,0.00,,---,0.12,0.00,VWS V14.01,2013-06-25 04:11:00,
2013-06-24 21:16:00,54.1,50.9,29.71,NE,47,4.0,10.0,89,0.00,,---,0.12,0.00,VWS V14.01,2013-06-25 04:16:00,
2013-06-24 21:21:00,54.0,50.8,29.71,ENE,59,7.0,10.0,89,0.00,,---,0.12,0.00,VWS V14.01,2013-06-25 04:21:00,
2013-06-24 21:26:00,54.0,50.8,29.71,ENE,62,4.0,10.0,89,0.00,,---,0.12,0.00,VWS V14.01,2013-06-25 04:26:00,
2013-06-24 21:31:00,53.9,50.7,29.72,NNE,26,7.0,7.0,89,0.00,,---,0.12,0.00,VWS V14.01,2013-06-25 04:31:00,
2013-06-24 21:36:00,53.9,50.7,29.72,NNE,22,2.0,7.0,89,0.00,,---,0.12,0.00,VWS V14.01,2013-06-25 04:36:00,
2013-06-24 21:41:00,53.9,51.0,29.72,NE,35,4.0,9.0,90,0.00,,---,0.12,0.00,VWS V14.01,2013-06-25 04:41:00,
2013-06-24 21:46:00,53.9,51.0,29.72,NE,36,4.0,9.0,90,0.00,,---,0.12,0.00,VWS V14.01,2013-06-25 04:46:00,
2013-06-24 21:51:00,53.8,50.9,29.72,NE,46,6.0,9.0,90,0.00,,---,0.12,0.00,VWS V14.01,2013-06-25 04:51:00,
2013-06-24 21:56:00,53.6,51.0,29.72,ENE,60,7.0,10.0,91,0.00,,---,0.12,0.00,VWS V14.01,2013-06-25 04:56:00,
2013-06-24 22:01:00,53.5,50.9,29.72,NE,36,3.0,7.0,91,0.00,,---,0.12,0.00,VWS V14.01,2013-06-25 05:01:00,
2013-06-24 22:06:00,53.4,50.8,29.72,NE,44,6.0,9.0,91,0.00,,---,0.12,0.00,VWS V14.01,2013-06-25 05:06:00,
2013-06-24 22:11:00,53.4,51.1,29.72,NE,41,4.0,9.0,92,0.00,,---,0.12,0.00,VWS V14.01,2013-06-25 05:11:00,
2013-06-24 22:16:00,53.3,51.0,29.72,NNE,21,6.0,9.0,92,0.00,,---,0.12,0.00,VWS V14.01,2013-06-25 05:16:00,
2013-06-24 22:21:00,53.2,50.7,29.72,NNE,31,8.0,9.0,91,0.00,,---,0.12,0.00,VWS V14.01,2013-06-25 05:21:00,
2013-06-24 22:26:00,53.2,50.7,29.72,North,5,4.0,9.0,91,0.00,,---,0.12,0.00,VWS V14.01,2013-06-25 05:26:00,
2013-06-24 22:31:00,53.1,50.5,29.72,NE,39,4.0,6.0,91,0.00,,---,0.12,0.00,VWS V14.01,2013-06-25 05:31:00,
2013-06-24 22:36:00,53.0,50.7,29.72,NNE,17,6.0,7.0,92,0.00,,---,0.12,0.00,VWS V14.01,2013-06-25 05:36:00,
2013-06-24 22:41:00,53.0,50.7,29.72,NNE,17,7.0,7.0,92,0.00,,---,0.12,0.00,VWS V14.01,2013-06-25 05:41:00,
2013-06-24 22:46:00,52.9,50.6,29.72,NNE,13,5.0,9.0,92,0.00,,---,0.12,0.00,VWS V14.01,2013-06-25 05:46:00,
2013-06-24 22:51:00,52.8,50.5,29.72,NE,40,4.0,9.0,92,0.00,,---,0.12,0.00,VWS V14.01,2013-06-25 05:51:00,
2013-06-24 22:56:00,52.8,50.5,29.72,NNE,32,1.0,9.0,92,0.00,,---,0.12,0.00,VWS V14.01,2013-06-25 05:56:00,
2013-06-24 23:01:00,52.7,50.5,29.72,NE,41,3.0,4.0,92,0.00,,---,0.12,0.00,VWS V14.01,2013-06-25 06:01:00,
2013-06-24 23:06:00,52.7,50.5,29.72,North,360,5.0,5.0,92,0.00,,---,0.12,0.00,VWS V14.01,2013-06-25 06:06:00,
2013-06-24 23:11:00,52.6,50.3,29.72,North,9,3.0,6.0,92,0.00,,---,0.12,0.00,VWS V14.01,2013-06-25 06:11:00,
2013-06-24 23:16:00,52.6,50.3,29.72,NNE,29,3.0,6.0,92,0.00,,---,0.12,0.00,VWS V14.01,2013-06-25 06:16:00,
2013-06-24 23:21:00,52.6,50.3,29.72,NNE,15,4.0,6.0,92,0.00,,---,0.12,0.00,VWS V14.01,2013-06-25 06:21:00,
2013-06-24 23:26:00,52.5,50.2,29.72,NNE,15,2.0,6.0,92,0.00,,---,0.12,0.00,VWS V14.01,2013-06-25 06:26:00,
2013-06-24 23:31:00,52.5,50.2,29.72,NNE,15,2.0,3.0,92,0.00,,---,0.12,0.00,VWS V14.01,2013-06-25 06:31:00,
2013-06-24 23:36:00,52.5,50.2,29.71,NNE,26,3.0,7.0,92,0.00,,---,0.12,0.00,VWS V14.01,2013-06-25 06:36:00,
2013-06-24 23:41:00,52.4,50.2,29.71,North,9,2.0,7.0,92,0.00,,---,0.12,0.00,VWS V14.01,2013-06-25 06:41:00,
2013-06-24 23:46:00,52.4,50.2,29.71,North,360,3.0,7.0,92,0.00,,---,0.12,0.00,VWS V14.01,2013-06-25 06:46:00,
2013-06-24 23:51:00,52.4,50.2,29.71,North,5,6.0,7.0,92,0.00,,---,0.12,0.00,VWS V14.01,2013-06-25 06:51:00,
2013-06-24 23:56:00,52.4,50.2,29.71,North,9,2.0,7.0,92,0.00,,---,0.12,0.00,VWS V14.01,2013-06-25 06:56:00,